AFR579 GUCY-LFPG

Flight info

Callsign AFR579
Flight time N/A
Altitude 39000
Route DIRNO1D DIRNO UR72 BUMBI UM372 BULIS/N0479F400 DCT MABAP UR722 SAK UG5 KORIS DCT SVL DCT HIJ DCT RUSEM DCT SOTUK DCT USOKO DCT TLD DCT SIE DCT EDIGO DCT DGO DCT ABRIX DCT CNA DCT POI/N0441F300 DCT PEPAX UT182 KEPER
Aircraft A359/H-SDE2E3GHIJ3J4J5LM1ORWXY/LB1D1

Departure

Time 2026-05-06 23:57
Airport Ahmed Sékou Touré International Airport (GUCY)

Arrival

Time N/A
Airport Charles de Gaulle International Airport (LFPG)
Time Latitude Longitude Altitude Speed Heading
2026-05-06 23:52 9.57460 -13.61914 90 ft 0 kts 313°
2026-05-06 23:53 9.57447 -13.61900 90 ft 4 kts 308°
2026-05-06 23:53 9.57432 -13.61877 90 ft 4 kts 300°
2026-05-06 23:54 9.57420 -13.61853 88 ft 4 kts 289°
2026-05-06 23:54 9.57415 -13.61801 88 ft 4 kts 246°
2026-05-06 23:54 9.57418 -13.61796 89 ft 0 kts 241°
2026-05-06 23:55 9.57408 -13.61807 89 ft 6 kts 230°
2026-05-06 23:55 9.57300 -13.61936 91 ft 15 kts 230°
2026-05-06 23:55 9.57222 -13.61990 91 ft 12 kts 169°
2026-05-06 23:56 9.57153 -13.61941 92 ft 13 kts 142°
2026-05-06 23:56 9.57117 -13.61874 89 ft 11 kts 70°
2026-05-06 23:56 9.57194 -13.61778 90 ft 41 kts 49°
2026-05-06 23:56 9.57529 -13.61386 85 ft 106 kts 49°
2026-05-06 23:57 9.58134 -13.60669 91 ft 160 kts 48°
2026-05-06 23:57 9.58856 -13.59794 642 ft 163 kts 47°
2026-05-06 23:57 9.59599 -13.58920 1216 ft 167 kts 48°
2026-05-06 23:57 9.60413 -13.57967 1447 ft 192 kts 48°
2026-05-06 23:58 9.61352 -13.56866 1658 ft 220 kts 48°
2026-05-06 23:58 9.62404 -13.55626 1925 ft 244 kts 48°
2026-05-06 23:58 9.63551 -13.54271 2358 ft 259 kts 48°
2026-05-06 23:58 9.64726 -13.52881 3007 ft 264 kts 49°
2026-05-06 23:59 9.65921 -13.51465 3762 ft 264 kts 48°
2026-05-06 23:59 9.67113 -13.50053 4583 ft 263 kts 48°
2026-05-06 23:59 9.68299 -13.48648 5308 ft 264 kts 48°
2026-05-06 23:59 9.69505 -13.47220 5986 ft 267 kts 48°
2026-05-07 00:00 9.70722 -13.45781 6701 ft 269 kts 49°
2026-05-07 00:00 9.71943 -13.44337 7401 ft 271 kts 50°
2026-05-07 00:00 9.73191 -13.42882 8100 ft 274 kts 48°
2026-05-07 00:00 9.74636 -13.41598 8850 ft 279 kts 36°
2026-05-07 00:01 9.76388 -13.40719 9601 ft 286 kts 21°
2026-05-07 00:01 9.78356 -13.40298 10256 ft 295 kts 11°
2026-05-07 00:01 9.80463 -13.40030 10584 ft 314 kts
2026-05-07 00:01 9.82696 -13.39768 10875 ft 332 kts
2026-05-07 00:02 9.85049 -13.39484 11226 ft 346 kts
2026-05-07 00:02 9.87431 -13.39191 11779 ft 352 kts
2026-05-07 00:02 9.89885 -13.38888 12358 ft 356 kts
2026-05-07 00:02 9.92360 -13.38579 12987 ft 360 kts
2026-05-07 00:03 9.94863 -13.38265 13600 ft 364 kts
2026-05-07 00:03 9.97395 -13.37947 14153 ft 367 kts
2026-05-07 00:03 9.99946 -13.37626 14701 ft 371 kts
2026-05-07 00:03 10.02522 -13.37301 15206 ft 375 kts
2026-05-07 00:04 10.05121 -13.36974 15730 ft 378 kts
2026-05-07 00:04 10.07711 -13.36647 16236 ft 382 kts
2026-05-07 00:04 10.10362 -13.36313 16750 ft 385 kts
2026-05-07 00:04 10.13038 -13.35975 17264 ft 388 kts
2026-05-07 00:05 10.15729 -13.35635 17770 ft 392 kts
2026-05-07 00:05 10.18444 -13.35293 18272 ft 395 kts
2026-05-07 00:05 10.21189 -13.34947 18711 ft 398 kts
2026-05-07 00:05 10.23945 -13.34599 19164 ft 401 kts
2026-05-07 00:06 10.26730 -13.34247 19618 ft 404 kts
2026-05-07 00:06 10.29493 -13.33899 20067 ft 407 kts
2026-05-07 00:06 10.32323 -13.33541 20473 ft 411 kts
2026-05-07 00:06 10.35170 -13.33181 20910 ft 414 kts
2026-05-07 00:07 10.38037 -13.32819 21382 ft 417 kts
2026-05-07 00:07 10.40932 -13.32453 21806 ft 420 kts
2026-05-07 00:07 10.43847 -13.32085 22249 ft 422 kts
2026-05-07 00:07 10.46772 -13.31715 22665 ft 426 kts
2026-05-07 00:08 10.49718 -13.31343 23087 ft 428 kts
2026-05-07 00:08 10.52689 -13.30967 23507 ft 431 kts
2026-05-07 00:08 10.55682 -13.30589 23827 ft 434 kts
2026-05-07 00:08 10.58689 -13.30208 24144 ft 437 kts
2026-05-07 00:09 10.61695 -13.29827 24465 ft 441 kts
2026-05-07 00:09 10.64749 -13.29441 24814 ft 444 kts
2026-05-07 00:09 10.67834 -13.29050 25164 ft 448 kts
2026-05-07 00:09 10.70931 -13.28657 25555 ft 450 kts
2026-05-07 00:10 10.74048 -13.28263 25937 ft 453 kts
2026-05-07 00:10 10.77196 -13.27864 26333 ft 456 kts
2026-05-07 00:10 10.80366 -13.27462 26722 ft 460 kts
2026-05-07 00:10 10.83523 -13.27062 27089 ft 463 kts
2026-05-07 00:11 10.86733 -13.26655 27479 ft 466 kts
2026-05-07 00:11 10.89979 -13.26243 27850 ft 470 kts
2026-05-07 00:11 10.93234 -13.25830 28216 ft 473 kts
2026-05-07 00:11 10.96514 -13.25414 28599 ft 477 kts
2026-05-07 00:12 10.99823 -13.24994 28964 ft 480 kts
2026-05-07 00:12 11.03151 -13.24571 29261 ft 485 kts
2026-05-07 00:12 11.06523 -13.24143 29548 ft 489 kts
2026-05-07 00:12 11.09920 -13.23712 29919 ft 492 kts
2026-05-07 00:13 11.13285 -13.23284 30215 ft 495 kts
2026-05-07 00:13 11.16719 -13.22848 30542 ft 497 kts
2026-05-07 00:13 11.20162 -13.22411 30875 ft 498 kts
2026-05-07 00:13 11.23606 -13.21973 31207 ft 500 kts
2026-05-07 00:14 11.27072 -13.21533 31532 ft 502 kts
2026-05-07 00:14 11.30539 -13.21092 31840 ft 503 kts
2026-05-07 00:14 11.33977 -13.20655 32135 ft 505 kts
2026-05-07 00:14 11.37473 -13.20210 32436 ft 506 kts
2026-05-07 00:15 11.40984 -13.19763 32703 ft 509 kts
2026-05-07 00:15 11.44510 -13.19315 32968 ft 510 kts
2026-05-07 00:15 11.48036 -13.18866 33239 ft 512 kts
2026-05-07 00:15 11.51581 -13.18414 33512 ft 513 kts
2026-05-07 00:16 11.55124 -13.17963 33777 ft 514 kts
2026-05-07 00:16 11.58675 -13.17511 34013 ft 515 kts
2026-05-07 00:16 11.62247 -13.17055 34213 ft 517 kts
2026-05-07 00:16 11.65777 -13.16605 34491 ft 516 kts
2026-05-07 00:17 11.69331 -13.16151 34788 ft 515 kts
2026-05-07 00:17 11.72890 -13.15696 35057 ft 514 kts
2026-05-07 00:17 11.76432 -13.15239 35340 ft 513 kts
2026-05-07 00:17 11.79958 -13.14569 35615 ft 515 kts
2026-05-07 00:18 11.83444 -13.13714 35867 ft 516 kts 10°
2026-05-07 00:18 11.86918 -13.12790 36104 ft 517 kts 11°
2026-05-07 00:18 11.90399 -13.11833 36318 ft 517 kts 11°
2026-05-07 00:18 11.93872 -13.10873 36565 ft 516 kts 11°
2026-05-07 00:19 11.97335 -13.09919 36822 ft 515 kts 11°
2026-05-07 00:19 12.00796 -13.08974 37072 ft 515 kts 11°
2026-05-07 00:19 12.04262 -13.08035 37304 ft 514 kts 11°
2026-05-07 00:19 12.07676 -13.07114 37523 ft 514 kts 11°
2026-05-07 00:20 12.11128 -13.06185 37750 ft 513 kts 10°
2026-05-07 00:20 12.14595 -13.05253 37896 ft 514 kts 10°
2026-05-07 00:20 12.18064 -13.04321 38087 ft 514 kts 10°
2026-05-07 00:20 12.21520 -13.03391 38304 ft 513 kts 10°
2026-05-07 00:21 12.24980 -13.02459 38508 ft 513 kts 10°
2026-05-07 00:21 12.28428 -13.01530 38687 ft 513 kts 10°
2026-05-07 00:21 12.31884 -13.00599 38827 ft 512 kts 10°
2026-05-07 00:21 12.35304 -12.99677 38873 ft 514 kts 10°
2026-05-07 00:22 12.42213 -12.97818 38877 ft 513 kts 10°
2026-05-07 00:22 12.49129 -12.96023 38869 ft 512 kts
2026-05-07 00:23 12.56076 -12.94424 38868 ft 511 kts
2026-05-07 00:23 12.61858 -12.93137 38867 ft 511 kts
2026-05-07 00:24 12.68819 -12.91562 38864 ft 511 kts
2026-05-07 00:24 12.75755 -12.89967 38862 ft 511 kts
2026-05-07 00:25 12.82699 -12.88361 38870 ft 511 kts
2026-05-07 00:25 12.89602 -12.86765 38859 ft 512 kts
2026-05-07 00:26 12.96567 -12.85154 38859 ft 513 kts
2026-05-07 00:26 13.03545 -12.83539 38856 ft 513 kts
2026-05-07 00:27 13.10512 -12.81927 38855 ft 513 kts
2026-05-07 00:27 13.17476 -12.80314 38860 ft 513 kts
2026-05-07 00:28 13.24402 -12.78709 38851 ft 513 kts
2026-05-07 00:28 13.31373 -12.77093 38854 ft 513 kts
2026-05-07 00:29 13.38346 -12.75475 38854 ft 514 kts
2026-05-07 00:30 13.56243 -12.71319 38850 ft 514 kts
2026-05-07 00:30 13.70210 -12.68070 38848 ft 514 kts
2026-05-07 00:31 13.84183 -12.64816 38846 ft 514 kts
2026-05-07 00:31 13.98141 -12.61562 38837 ft 513 kts
2026-05-07 00:32 14.12084 -12.58307 38837 ft 513 kts
2026-05-07 00:32 14.25964 -12.55064 38834 ft 513 kts
2026-05-07 00:33 14.39903 -12.51802 38834 ft 513 kts
2026-05-07 00:33 14.53840 -12.48536 38834 ft 513 kts
2026-05-07 00:34 14.67796 -12.45261 38829 ft 513 kts
2026-05-07 00:34 14.81620 -12.42019 38825 ft 513 kts
2026-05-07 00:35 14.95557 -12.38736 38839 ft 514 kts
2026-05-07 00:35 15.09543 -12.35440 38824 ft 515 kts
2026-05-07 00:36 15.23524 -12.32142 38818 ft 515 kts
2026-05-07 00:36 15.37503 -12.28839 38819 ft 514 kts
2026-05-07 00:37 15.51402 -12.25552 38824 ft 514 kts
2026-05-07 00:37 15.65367 -12.22249 38839 ft 514 kts
2026-05-07 00:38 15.79302 -12.18937 38823 ft 513 kts
2026-05-07 00:38 15.93159 -12.15645 38825 ft 513 kts
2026-05-07 00:39 16.07051 -12.12338 38827 ft 512 kts
2026-05-07 00:39 16.20954 -12.09026 38831 ft 512 kts
2026-05-07 00:40 16.34860 -12.05707 38831 ft 512 kts
2026-05-07 00:40 16.48788 -12.02380 38824 ft 514 kts
2026-05-07 00:41 16.62724 -11.99043 38834 ft 514 kts
2026-05-07 00:41 16.76603 -11.95716 38834 ft 515 kts
2026-05-07 00:42 16.90560 -11.92368 38831 ft 515 kts
2026-05-07 00:42 17.04567 -11.89000 38835 ft 515 kts
2026-05-07 00:43 17.18589 -11.85626 38842 ft 517 kts
2026-05-07 00:43 17.32638 -11.82238 38848 ft 518 kts
2026-05-07 00:44 17.46672 -11.78850 38853 ft 519 kts
2026-05-07 00:44 17.60680 -11.75462 38870 ft 519 kts
2026-05-07 00:45 17.74776 -11.72047 38854 ft 519 kts
2026-05-07 00:45 17.88867 -11.68628 38868 ft 519 kts
2026-05-07 00:46 18.02990 -11.65196 38853 ft 519 kts
2026-05-07 00:46 18.17099 -11.61766 38862 ft 521 kts
2026-05-07 00:47 18.31142 -11.58337 38864 ft 521 kts
2026-05-07 00:47 18.45313 -11.54875 38883 ft 522 kts
2026-05-07 00:48 18.59483 -11.51410 38870 ft 522 kts
2026-05-07 00:48 18.73637 -11.47940 38867 ft 522 kts
2026-05-07 00:49 18.87770 -11.44474 38864 ft 526 kts
2026-05-07 00:49 19.02024 -11.40966 38865 ft 526 kts
2026-05-07 00:50 19.16313 -11.37446 38865 ft 528 kts
2026-05-07 00:50 19.30624 -11.33915 38865 ft 528 kts
2026-05-07 00:51 19.44962 -11.30368 38895 ft 529 kts
2026-05-07 00:51 19.59299 -11.26820 38869 ft 532 kts
2026-05-07 00:52 19.73721 -11.23239 38870 ft 532 kts
2026-05-07 00:52 19.88187 -11.19644 38864 ft 534 kts
2026-05-07 00:53 20.02686 -11.16032 38872 ft 534 kts
2026-05-07 00:53 20.17123 -11.12430 38881 ft 537 kts
2026-05-07 00:54 20.31767 -11.08770 38881 ft 540 kts
2026-05-07 00:54 20.46427 -11.05094 38900 ft 541 kts
2026-05-07 00:55 20.61096 -11.01417 38878 ft 546 kts
2026-05-07 00:55 20.75912 -10.97686 38878 ft 546 kts
2026-05-07 00:56 20.90826 -10.93936 38869 ft 556 kts
2026-05-07 00:56 21.05705 -10.90166 38882 ft 550 kts
2026-05-07 00:57 21.20606 -10.86398 38879 ft 551 kts
2026-05-07 00:57 21.35524 -10.82615 38878 ft 551 kts
2026-05-07 00:58 21.50456 -10.78822 38881 ft 555 kts
2026-05-07 00:58 21.65571 -10.74974 38877 ft 558 kts
2026-05-07 00:59 21.88198 -10.69188 38870 ft 553 kts
2026-05-07 01:00 21.96645 -10.67027 38871 ft 552 kts
2026-05-07 01:00 22.04114 -10.65116 38873 ft 552 kts
2026-05-07 01:01 22.11596 -10.63199 38900 ft 552 kts
2026-05-07 01:01 22.19077 -10.61276 38865 ft 550 kts
2026-05-07 01:02 22.26518 -10.59362 38863 ft 549 kts
2026-05-07 01:02 22.33918 -10.57459 38860 ft 549 kts
2026-05-07 01:03 22.41376 -10.55541 38861 ft 552 kts
2026-05-07 01:03 22.48860 -10.53611 38862 ft 551 kts
2026-05-07 01:04 22.56313 -10.51683 38857 ft 550 kts
2026-05-07 01:04 22.63746 -10.49762 38854 ft 550 kts
2026-05-07 01:05 22.71148 -10.47848 38853 ft 550 kts
2026-05-07 01:05 22.78591 -10.45920 38874 ft 549 kts
2026-05-07 01:06 22.85988 -10.43997 38854 ft 544 kts
2026-05-07 01:06 22.93349 -10.42091 38854 ft 543 kts
2026-05-07 01:07 23.00708 -10.40178 38853 ft 543 kts
2026-05-07 01:07 23.08022 -10.38273 38854 ft 543 kts
2026-05-07 01:08 23.15380 -10.36353 38861 ft 541 kts
2026-05-07 01:08 23.22655 -10.34453 38861 ft 540 kts
2026-05-07 01:09 23.29969 -10.32544 38855 ft 540 kts
2026-05-07 01:09 23.37280 -10.30633 38854 ft 540 kts
2026-05-07 01:10 23.44590 -10.28719 38863 ft 539 kts
2026-05-07 01:10 23.51877 -10.26808 38859 ft 537 kts
2026-05-07 01:11 23.59149 -10.24900 38861 ft 537 kts
2026-05-07 01:11 23.65186 -10.23315 38860 ft 537 kts
2026-05-07 01:12 23.73649 -10.21090 38910 ft 537 kts
2026-05-07 01:12 23.79720 -10.19488 38859 ft 534 kts
2026-05-07 01:13 23.86937 -10.17588 38859 ft 538 kts
2026-05-07 01:13 23.94211 -10.15672 38862 ft 538 kts
2026-05-07 01:14 24.01499 -10.13746 38862 ft 538 kts
2026-05-07 01:14 24.08796 -10.11815 38868 ft 537 kts
2026-05-07 01:15 24.16051 -10.09892 38862 ft 535 kts
2026-05-07 01:15 24.23250 -10.07984 38867 ft 535 kts
2026-05-07 01:16 24.30491 -10.06063 38868 ft 535 kts
2026-05-07 01:16 24.37731 -10.04140 38867 ft 535 kts
2026-05-07 01:17 24.44970 -10.02214 38870 ft 535 kts
2026-05-07 01:17 24.52206 -10.00287 38873 ft 535 kts
2026-05-07 01:18 24.59441 -9.98357 38876 ft 535 kts
2026-05-07 01:18 24.66676 -9.96426 38870 ft 534 kts
2026-05-07 01:19 24.73856 -9.94505 38875 ft 532 kts
2026-05-07 01:19 24.81040 -9.92581 38877 ft 531 kts
2026-05-07 01:20 24.88238 -9.90654 38880 ft 531 kts
2026-05-07 01:20 24.95424 -9.88727 38885 ft 531 kts
2026-05-07 01:21 25.02608 -9.86798 38907 ft 531 kts
2026-05-07 01:21 25.09720 -9.84884 38891 ft 529 kts
2026-05-07 01:22 25.16856 -9.82962 38881 ft 528 kts
2026-05-07 01:22 25.24046 -9.81029 38889 ft 534 kts
2026-05-07 01:23 25.31275 -9.79080 38893 ft 535 kts
2026-05-07 01:23 25.38504 -9.77123 38894 ft 533 kts
2026-05-07 01:24 25.45716 -9.75170 38896 ft 533 kts
2026-05-07 01:24 25.52886 -9.73228 38904 ft 533 kts
2026-05-07 01:25 25.60086 -9.71276 38905 ft 533 kts
2026-05-07 01:25 25.67307 -9.69315 38903 ft 532 kts
2026-05-07 01:26 25.78321 -9.66319 38901 ft 532 kts
2026-05-07 01:26 25.92711 -9.62397 38907 ft 532 kts
2026-05-07 01:27 26.06978 -9.58497 38911 ft 530 kts
2026-05-07 01:27 26.21311 -9.54572 38911 ft 530 kts
2026-05-07 01:28 26.35677 -9.50626 38915 ft 530 kts
2026-05-07 01:28 26.49998 -9.46683 38921 ft 530 kts
2026-05-07 01:29 26.64305 -9.42737 38921 ft 534 kts
2026-05-07 01:29 26.78714 -9.38745 38918 ft 534 kts
2026-05-07 01:30 26.93114 -9.34749 38927 ft 532 kts
2026-05-07 01:30 27.07482 -9.30751 38926 ft 531 kts
2026-05-07 01:31 27.21830 -9.26749 38919 ft 530 kts
2026-05-07 01:31 27.36066 -9.22767 38915 ft 529 kts
2026-05-07 01:32 27.50352 -9.18761 38913 ft 528 kts
2026-05-07 01:32 27.64632 -9.14745 38936 ft 528 kts
2026-05-07 01:32 27.71772 -9.12907 39188 ft 525 kts
2026-05-07 01:33 27.78958 -9.11522 39657 ft 520 kts
2026-05-07 01:33 27.86086 -9.10185 39919 ft 518 kts
2026-05-07 01:33 27.93099 -9.08803 39904 ft 519 kts
2026-05-07 01:34 28.07481 -9.05877 39957 ft 528 kts
2026-05-07 01:34 28.21849 -9.02926 39916 ft 523 kts
2026-05-07 01:35 28.36206 -8.99984 39912 ft 523 kts
2026-05-07 01:35 28.50455 -8.97052 39901 ft 519 kts
2026-05-07 01:36 28.64622 -8.94133 39897 ft 519 kts
2026-05-07 01:36 28.78778 -8.91205 39884 ft 516 kts
2026-05-07 01:37 28.92863 -8.88286 39881 ft 516 kts
2026-05-07 01:37 29.00715 -8.86654 39883 ft 513 kts
2026-05-07 01:38 29.13424 -8.84007 39884 ft 510 kts
2026-05-07 01:38 29.27426 -8.81086 39896 ft 510 kts
2026-05-07 01:39 29.41260 -8.78187 39886 ft 507 kts
2026-05-07 01:39 29.55153 -8.75273 39920 ft 507 kts
2026-05-07 01:40 29.69003 -8.72357 39916 ft 505 kts
2026-05-07 01:40 29.82920 -8.69423 39950 ft 511 kts
2026-05-07 01:41 29.96892 -8.66462 39939 ft 508 kts
2026-05-07 01:41 30.10718 -8.63526 39942 ft 508 kts
2026-05-07 01:42 30.24636 -8.60564 39960 ft 507 kts
2026-05-07 01:42 30.38538 -8.57595 39966 ft 507 kts
2026-05-07 01:43 30.52426 -8.54620 39963 ft 507 kts
2026-05-07 01:43 30.66307 -8.51640 39965 ft 507 kts
2026-05-07 01:44 30.80075 -8.48674 39965 ft 506 kts
2026-05-07 01:44 30.93925 -8.45683 39978 ft 505 kts
2026-05-07 01:45 31.07776 -8.42682 39969 ft 504 kts
2026-05-07 01:45 31.21562 -8.39689 39966 ft 503 kts
2026-05-07 01:46 31.35334 -8.36685 39975 ft 503 kts
2026-05-07 01:46 31.48998 -8.33698 39978 ft 504 kts
2026-05-07 01:47 31.72207 -8.28605 39974 ft 508 kts
2026-05-07 01:47 31.86131 -8.25536 39975 ft 506 kts
2026-05-07 01:48 31.99961 -8.22479 39979 ft 505 kts
2026-05-07 01:48 32.13769 -8.19422 39983 ft 504 kts
2026-05-07 01:49 32.27626 -8.17185 39983 ft 501 kts
2026-05-07 01:49 32.39656 -8.15304 39982 ft 501 kts
2026-05-07 01:50 32.48866 -8.13802 39981 ft 500 kts
2026-05-07 01:50 32.62635 -8.11550 39982 ft 500 kts
2026-05-07 01:51 32.74648 -8.09586 39982 ft 499 kts
2026-05-07 01:51 32.81529 -8.08457 39982 ft 499 kts
2026-05-07 01:52 32.88351 -8.07330 39981 ft 499 kts
2026-05-07 01:52 32.95110 -8.05153 39981 ft 512 kts 19°
2026-05-07 01:53 33.01489 -8.01289 39978 ft 516 kts 24°
2026-05-07 01:53 33.07770 -7.97137 39979 ft 517 kts 24°
2026-05-07 01:54 33.14049 -7.92947 39981 ft 517 kts 24°
2026-05-07 01:54 33.20351 -7.88770 39976 ft 516 kts 24°
2026-05-07 01:55 33.26602 -7.84641 39970 ft 516 kts 24°
2026-05-07 01:55 33.32882 -7.80491 39970 ft 516 kts 24°
2026-05-07 01:56 33.39168 -7.76329 39970 ft 516 kts 24°
2026-05-07 01:56 33.46684 -7.71343 39975 ft 516 kts 24°
2026-05-07 01:57 33.59370 -7.63184 39966 ft 515 kts 21°
2026-05-07 01:57 33.72204 -7.55543 39965 ft 517 kts 21°
2026-05-07 01:58 33.85076 -7.47719 39958 ft 518 kts 22°
2026-05-07 01:58 33.97849 -7.39910 39952 ft 518 kts 22°
2026-05-07 01:59 34.10692 -7.32038 39957 ft 518 kts 22°
2026-05-07 01:59 34.23564 -7.24121 39953 ft 518 kts 22°
2026-05-07 02:00 34.34264 -7.17512 39955 ft 520 kts 22°
2026-05-07 02:00 34.49265 -7.08219 39952 ft 521 kts 22°
2026-05-07 02:01 34.62175 -7.00199 39947 ft 521 kts 22°
2026-05-07 02:01 34.72944 -6.93606 39941 ft 521 kts 22°
2026-05-07 02:02 34.85872 -6.85672 39939 ft 520 kts 22°
2026-05-07 02:02 34.98806 -6.77695 39928 ft 523 kts 22°
2026-05-07 02:03 35.11825 -6.69634 39926 ft 523 kts 22°
2026-05-07 02:03 35.24813 -6.61565 39918 ft 523 kts 22°
2026-05-07 02:04 35.37710 -6.53525 39898 ft 523 kts 23°
2026-05-07 02:04 35.50671 -6.45336 39909 ft 524 kts 24°
2026-05-07 02:05 35.63562 -6.36856 39899 ft 526 kts 24°
2026-05-07 02:05 35.76464 -6.28392 39898 ft 525 kts 24°
2026-05-07 02:06 35.89902 -6.21953 39903 ft 515 kts
2026-05-07 02:06 36.03866 -6.17864 39900 ft 515 kts
2026-05-07 02:07 36.17720 -6.13808 39900 ft 515 kts
2026-05-07 02:07 36.38621 -6.07612 39903 ft 515 kts
2026-05-07 02:08 36.52611 -6.03447 39896 ft 517 kts
2026-05-07 02:08 36.66603 -5.99264 39882 ft 516 kts
2026-05-07 02:09 36.80569 -5.95075 39886 ft 515 kts
2026-05-07 02:09 36.94425 -5.90904 39887 ft 515 kts
2026-05-07 02:10 37.19092 -5.83437 39883 ft 513 kts
2026-05-07 02:10 37.46643 -5.73871 39883 ft 518 kts 20°
2026-05-07 02:11 37.72803 -5.58028 39889 ft 521 kts 22°
2026-05-07 02:11 37.98735 -5.42185 39887 ft 519 kts 22°
2026-05-07 02:12 38.24783 -5.26143 39877 ft 521 kts 23°
2026-05-07 02:12 38.50841 -5.09964 39876 ft 521 kts 23°
2026-05-07 02:13 38.77608 -4.96268 39870 ft 517 kts 19°
2026-05-07 02:13 39.04167 -4.82559 39872 ft 518 kts 19°
2026-05-07 02:14 39.30915 -4.68636 39880 ft 517 kts 19°
2026-05-07 02:14 39.57569 -4.54641 39879 ft 517 kts 19°
2026-05-07 02:15 39.84263 -4.40529 39876 ft 516 kts 20°
2026-05-07 02:15 40.10623 -4.25500 39897 ft 516 kts 24°
2026-05-07 02:16 40.36637 -4.09469 39913 ft 515 kts 23°
2026-05-07 02:16 40.62418 -3.93529 39936 ft 514 kts 23°
2026-05-07 02:17 40.88339 -3.77362 39948 ft 515 kts 23°
2026-05-07 02:17 41.14240 -3.61066 39958 ft 515 kts 23°
2026-05-07 02:18 41.40746 -3.46513 39974 ft 514 kts 20°
2026-05-07 02:18 41.67073 -3.31998 39982 ft 511 kts 20°
2026-05-07 02:19 41.93302 -3.17407 39996 ft 509 kts 20°
2026-05-07 02:19 42.19455 -3.02731 40016 ft 508 kts 20°
2026-05-07 02:20 42.45344 -2.87928 40022 ft 509 kts 26°
2026-05-07 02:20 42.70170 -2.69305 40004 ft 509 kts 27°
2026-05-07 02:21 42.94786 -2.50523 40030 ft 509 kts 27°
2026-05-07 02:21 43.19431 -2.31544 40022 ft 505 kts 27°
2026-05-07 02:22 43.43717 -2.12668 40014 ft 503 kts 27°
2026-05-07 02:22 43.68023 -1.93610 40005 ft 502 kts 27°
2026-05-07 02:23 43.92180 -1.74455 40006 ft 501 kts 27°
2026-05-07 02:23 44.16320 -1.55147 40007 ft 499 kts 28°
2026-05-07 02:24 44.40283 -1.35796 40012 ft 499 kts 28°
2026-05-07 02:24 44.64273 -1.16237 40022 ft 498 kts 28°
2026-05-07 02:25 44.88115 -0.96611 40007 ft 498 kts 28°
2026-05-07 02:25 45.12056 -0.76710 40005 ft 498 kts 28°
2026-05-07 02:26 45.35910 -0.56686 39998 ft 497 kts 28°
2026-05-07 02:26 45.59686 -0.36529 39997 ft 497 kts 29°
2026-05-07 02:27 45.84384 -0.19145 39994 ft 494 kts 22°
2026-05-07 02:27 46.09366 -0.02727 39993 ft 493 kts 22°
2026-05-07 02:28 46.34118 0.13717 39991 ft 492 kts 23°
2026-05-07 02:28 46.57671 0.29275 40011 ft 491 kts 16°
2026-05-07 02:29 46.68160 0.32949 39995 ft 488 kts 10°
2026-05-07 02:29 46.81480 0.36997 39991 ft 488 kts 10°
2026-05-07 02:30 46.88120 0.39035 39662 ft 484 kts 10°
2026-05-07 02:30 46.94702 0.41071 38856 ft 482 kts 10°
2026-05-07 02:30 46.99041 0.42416 37938 ft 482 kts 10°